#timestamp,LO_Frequency,Hit,StdDev 
1562256015.7,286047000.9,N
1562256035.5,286046998.1,N
1562256055.4,286047000.5,N
1562256075.2,286047002.8,N
1562256095.0,286047000.6,N
1562256095.9,286047000.6,N
1562256115.8,286047000.4,N
1562256135.6,286046999.9,N
1562256155.5,286047000.5,N
1562256175.3,286047000.3,N
1562256195.1,286047000.8,N
1562256215.9,286047000.0,N
1562256235.7,286047000.4,N
1562256255.5,286047000.2,N
1562256275.4,286047001.1,N
1562256295.2,286047000.3,N
1562256315.1,286047002.4,N
1562256316.0,286047002.4,N
1562256335.8,286047000.4,N
1562256355.6,286047000.0,N
1562256375.5,286047001.0,N
1562256395.3,286047000.6,N
1562256415.1,286046999.7,N
1562256435.9,286047000.3,N
1562256455.7,286046999.9,N
1562256475.6,286047002.8,N
1562256495.4,286047002.4,N
1562256515.2,286047002.4,N
1562256535.1,286047002.1,N
1562256536.0,286047002.1,N
1562256555.8,286047002.3,N
1562256575.7,286047002.3,N
1562256595.5,286047002.3,N
1562256615.3,286047002.7,N
1562256635.2,286047000.5,N
1562256655.0,286047002.4,N
1562256655.9,286047002.4,N
1562256675.8,286046999.7,N
1562256695.6,286047002.2,N
1562256715.4,286047001.9,N
1562256735.3,286047002.2,N
1562256755.1,286047002.3,N
1562256775.8,286047000.0,N
1562256795.7,286047002.6,N
1562256815.5,286047002.3,N
1562256835.4,286047002.4,N
1562256855.2,286047000.1,N
1562256875.0,286047000.1,N
1562256875.9,286047000.1,N
1562256895.8,286046999.9,N
1562256915.6,286047000.1,N
1562256935.5,286047000.1,N
1562256955.3,286047000.2,N
1562256975.1,286047002.7,N
1562256995.9,286047002.4,N
1562257015.7,286047002.4,N
1562257035.6,286046999.9,N
1562257055.4,286047002.4,N
1562257075.2,286047001.5,N
1562257095.1,286047001.7,N
1562257096.0,286047001.7,N
1562257115.8,286047002.6,N
1562257135.6,286047002.5,N
1562257155.5,286046999.8,N
1562257175.3,286047002.0,N
1562257195.2,286047001.6,N
1562257215.9,286047002.4,N
1562257235.7,286047000.0,N
1562257255.6,286047000.2,N
1562257275.4,286047002.3,N
1562257295.2,286047002.3,N
1562257315.1,286047002.1,N
1562257316.0,286047002.1,N
1562257335.8,286047002.2,N
1562257355.7,286047001.8,N
1562257375.5,286047001.8,N
1562257395.3,286047004.4,Y
1562257415.2,286047002.7,P
1562257435.0,286047002.4,P
1562257435.9,286047002.4,P
1562257455.8,286047002.8,Y
1562257475.6,286046998.6,P
1562257495.4,286046998.2,N
1562257515.3,286046998.5,N
1562257535.1,286047001.2,N
1562257555.8,286046998.8,N
1562257575.7,286046999.5,N
1562257595.5,286046998.9,N
1562257615.4,286046998.7,N
1562257635.2,286046998.9,N
1562257655.0,286046999.1,N
1562257655.9,286046999.1,N
1562257675.8,286046999.2,N
1562257695.6,286046999.4,N
1562257715.5,286046998.9,N
1562257735.3,286046998.7,N
1562257755.1,286046999.0,N
1562257775.9,286046998.7,N
1562257795.7,286046998.2,N
1562257815.6,286046996.9,Y
1562257835.4,286046998.3,P
1562257855.2,286047001.0,N
1562257875.1,286047000.3,N
1562257876.0,286047000.3,N
1562257895.8,286046998.1,N
1562257915.6,286046998.1,N
1562257935.5,286047001.0,N
1562257955.3,286047000.8,N
1562257975.2,286047000.6,N
1562257995.9,286047000.5,N
1562258015.7,286047000.0,N
1562258035.6,286047000.7,N
1562258055.4,286047001.0,N
1562258075.3,286047000.6,N
1562258095.1,286047000.2,N
1562258096.0,286047000.2,N
1562258115.8,286047000.5,N
1562258135.7,286046998.1,N
1562258155.5,286046998.2,N
1562258175.3,286047000.8,N
1562258195.2,286047000.5,N
1562258215.0,286047000.3,N
1562258215.9,286047000.3,N
1562258235.8,286047000.9,N
1562258255.6,286046998.1,N
1562258275.5,286047000.8,N
1562258295.3,286047000.9,N
1562258315.2,286046998.1,N
1562258335.0,286046999.4,N
1562258335.9,286046999.4,N
1562258355.8,286046998.7,N
1562258375.6,286046998.6,N
1562258395.4,286046999.3,N
1562258415.3,286046996.7,Y
1562258435.1,286046999.2,P
1562258455.9,286046998.4,P
1562258475.7,286046999.4,N
1562258495.5,286046999.3,N
1562258515.4,286046999.1,N
1562258535.2,286046999.2,N
1562258555.0,286046999.0,N
1562258555.9,286046999.0,N
1562258575.8,286046997.0,Y
1562258595.6,286046998.7,P
1562258615.5,286046999.5,N
1562258635.3,286046999.5,N
1562258655.1,286046999.0,Y
1562258675.9,286046998.3,P
1562258695.7,286046998.4,P
1562258715.5,286046998.3,P
1562258735.4,286046998.3,Y
1562258755.2,286047000.4,P
1562258775.1,286047001.2,N
1562258776.0,286047001.2,N
1562258795.8,286046998.1,N
1562258815.6,286046998.8,N
1562258835.5,286046998.7,N
1562258855.3,286046998.4,N
1562258875.2,286047000.1,N
1562258895.9,286046999.4,N
1562258915.7,286046999.4,N
1562258935.6,286046999.0,N
1562258955.4,286046999.3,N
1562258975.3,286046996.5,Y
1562258995.1,286046998.5,P
1562258996.0,286046998.5,P
1562259015.8,286046998.2,P
1562259035.7,286046998.2,Y
1562259055.5,286047000.3,P
1562259075.4,286047000.1,N
1562259095.2,286047000.6,N
1562259115.0,286046999.7,N
1562259115.9,286046999.7,N
1562259135.8,286047002.7,Y
1562259155.6,286047000.0,P
1562259175.4,286047000.5,P
1562259195.3,286047000.1,N
1562259215.1,286047002.8,Y
1562259235.9,286047002.7,P
1562259255.7,286046999.9,N
1562259275.5,286047000.1,N
1562259295.4,286047002.3,N
1562259315.2,286047002.2,N
1562259335.1,286047002.5,N
1562259336.0,286047002.5,N
1562259355.8,286047002.3,N
1562259375.6,286047002.4,N
1562259395.5,286047002.6,N
1562259415.3,286047002.5,N
1562259435.2,286047002.1,N
1562259455.9,286047001.4,N
1562259475.7,286047001.4,N
1562259495.6,286047004.0,Y
1562259515.4,286047002.3,P
1562259535.2,286047002.5,P
1562259555.1,286047001.7,P
1562259556.0,286047001.7,Y
1562259575.8,286047000.4,P
1562259595.7,286047000.4,N
